TimeCDT,TemperatureF,Dew PointF,Humidity,Sea Level PressureIn,VisibilityMPH,Wind Direction,Wind SpeedMPH,Gust SpeedMPH,PrecipitationIn,Events,Conditions,WindDirDegrees,DateUTC
12:27 AM,80.6,75.2,84,29.84,10.0,SSE,4.6,-,N/A,Thunderstorm,Mostly Cloudy,150,2013-06-06 05:27:00
12:53 AM,80.1,75.0,85,29.84,10.0,South,5.8,-,N/A,Thunderstorm,Thunderstorm,170,2013-06-06 05:53:00
1:14 AM,80.6,75.2,84,29.83,10.0,South,6.9,-,N/A,Thunderstorm,Thunderstorm,170,2013-06-06 06:14:00
1:53 AM,79.0,75.0,88,29.82,10.0,SSW,5.8,-,0.06,Rain-Thunderstorm,Light Thunderstorms and Rain,200,2013-06-06 06:53:00
2:46 AM,77.0,73.4,89,29.82,10.0,SW,3.5,-,0.04,Rain-Thunderstorm,Light Thunderstorms and Rain,230,2013-06-06 07:46:00
2:53 AM,77.0,73.0,88,29.81,9.0,Calm,Calm,-,0.04,Rain-Thunderstorm,Light Thunderstorms and Rain,0,2013-06-06 07:53:00
3:05 AM,77.0,73.4,89,29.83,10.0,NNW,3.5,-,0.01,Rain,Light Rain,340,2013-06-06 08:05:00
3:12 AM,75.2,73.4,94,29.83,10.0,NNW,8.1,-,0.01,Thunderstorm,Overcast,340,2013-06-06 08:12:00
3:20 AM,75.2,71.6,89,29.83,10.0,Calm,Calm,-,0.01,Rain-Thunderstorm,Light Rain,0,2013-06-06 08:20:00
3:28 AM,75.2,73.4,94,29.83,10.0,NNE,6.9,-,0.01,Rain-Thunderstorm,Light Rain,30,2013-06-06 08:28:00
3:42 AM,75.2,71.6,89,29.82,10.0,SW,3.5,-,0.01,Thunderstorm,Overcast,220,2013-06-06 08:42:00
3:49 AM,73.4,71.6,94,29.81,10.0,West,5.8,-,0.01,,Mostly Cloudy,270,2013-06-06 08:49:00
3:53 AM,73.9,71.1,91,29.80,10.0,Calm,Calm,-,0.01,,Mostly Cloudy,0,2013-06-06 08:53:00
4:10 AM,73.4,71.6,94,29.81,10.0,Calm,Calm,-,N/A,,Mostly Cloudy,0,2013-06-06 09:10:00
4:20 AM,75.2,71.6,89,29.81,10.0,Calm,Calm,-,N/A,,Mostly Cloudy,0,2013-06-06 09:20:00
4:42 AM,73.4,71.6,94,29.82,9.0,Calm,Calm,-,N/A,Thunderstorm,Overcast,0,2013-06-06 09:42:00
4:51 AM,73.4,71.6,94,29.81,10.0,SSW,4.6,-,N/A,,Mostly Cloudy,210,2013-06-06 09:51:00
4:53 AM,73.9,72.0,93,29.81,9.0,SW,4.6,-,N/A,,Mostly Cloudy,220,2013-06-06 09:53:00
5:05 AM,73.4,71.6,94,29.79,8.0,WSW,9.2,-,N/A,,Scattered Clouds,250,2013-06-06 10:05:00
5:24 AM,73.4,71.6,94,29.83,9.0,North,6.9,-,N/A,Thunderstorm,Clear,350,2013-06-06 10:24:00
5:42 AM,73.4,71.6,94,29.84,10.0,North,5.8,-,N/A,,Scattered Clouds,10,2013-06-06 10:42:00
5:53 AM,73.9,71.1,91,29.84,10.0,Variable,4.6,-,N/A,Thunderstorm,Mostly Cloudy,0,2013-06-06 10:53:00
6:39 AM,73.4,71.6,94,29.83,10.0,Calm,Calm,-,N/A,Thunderstorm,Thunderstorm,0,2013-06-06 11:39:00
6:53 AM,73.0,71.1,93,29.86,10.0,West,8.1,-,0.00,Rain-Thunderstorm,Light Thunderstorms and Rain,280,2013-06-06 11:53:00
7:01 AM,73.4,71.6,94,29.85,10.0,Variable,3.5,-,0.00,Rain-Thunderstorm,Light Rain,0,2013-06-06 12:01:00
7:13 AM,73.4,71.6,94,29.86,10.0,Calm,Calm,-,0.00,Rain-Thunderstorm,Light Thunderstorms and Rain,0,2013-06-06 12:13:00
7:53 AM,73.0,71.1,93,29.83,9.0,WSW,5.8,-,0.01,Rain-Thunderstorm,Light Rain,250,2013-06-06 12:53:00
8:12 AM,73.4,71.6,94,29.85,10.0,West,9.2,-,0.00,Rain,Light Rain,270,2013-06-06 13:12:00
8:21 AM,73.4,69.8,88,29.85,7.0,West,3.5,-,0.01,Rain-Thunderstorm,Light Rain,270,2013-06-06 13:21:00
8:48 AM,73.4,71.6,94,29.85,6.0,WSW,5.8,-,0.03,Rain,Light Rain,250,2013-06-06 13:48:00
8:53 AM,73.9,71.1,91,29.83,7.0,WSW,10.4,-,0.04,Rain,Light Rain,240,2013-06-06 13:53:00
9:53 AM,77.0,72.0,84,29.77,10.0,Variable,4.6,-,0.00,,Clear,0,2013-06-06 14:53:00
10:42 AM,77.0,71.6,83,29.87,10.0,Calm,Calm,-,0.00,,Mostly Cloudy,0,2013-06-06 15:42:00
10:53 AM,78.1,72.0,81,29.87,10.0,Variable,3.5,-,0.00,,Partly Cloudy,0,2013-06-06 15:53:00
11:53 AM,77.0,70.0,79,29.91,10.0,NNW,5.8,-,N/A,,Mostly Cloudy,330,2013-06-06 16:53:00
12:53 PM,80.1,68.0,67,29.84,10.0,Variable,3.5,-,N/A,,Clear,0,2013-06-06 17:53:00
1:53 PM,81.0,66.0,60,29.81,10.0,Calm,Calm,-,N/A,,Clear,0,2013-06-06 18:53:00
2:53 PM,81.0,66.9,62,29.82,10.0,West,6.9,-,N/A,,Partly Cloudy,280,2013-06-06 19:53:00
3:53 PM,79.0,66.9,66,29.82,10.0,Variable,4.6,-,N/A,,Partly Cloudy,0,2013-06-06 20:53:00
4:53 PM,78.1,68.0,71,29.78,10.0,ENE,4.6,-,N/A,,Clear,60,2013-06-06 21:53:00
5:53 PM,79.0,68.0,69,29.79,10.0,NNE,3.5,-,N/A,,Clear,30,2013-06-06 22:53:00
6:53 PM,78.1,68.0,71,29.79,10.0,Calm,Calm,-,N/A,,Scattered Clouds,0,2013-06-06 23:53:00
7:53 PM,75.0,70.0,84,29.81,10.0,Calm,Calm,-,N/A,,Mostly Cloudy,0,2013-06-07 00:53:00
8:53 PM,73.9,71.1,91,29.84,10.0,Calm,Calm,-,0.03,Rain,Light Rain,0,2013-06-07 01:53:00
9:53 PM,73.0,71.1,93,29.83,10.0,Calm,Calm,-,0.02,Rain,Light Rain,0,2013-06-07 02:53:00
10:53 PM,73.0,71.1,93,29.86,7.0,West,3.5,-,0.04,Rain,Light Rain,270,2013-06-07 03:53:00
11:53 PM,73.0,71.1,93,29.84,9.0,Calm,Calm,-,0.02,Rain,Light Rain,0,2013-06-07 04:53:00